,,PA_Meas_PMT16A,,PR_Meas_QMR101_102,,RH_Meas_QMH101,,SR_Meas_QMS101,,TA_Meas_QMH101,,GenWind,,GenWind,
time,status,PA,status,PR,status,RH,status,SR,status,TA,status,DirAvg,status,SpdAvg,
2010-02-22, 00:00:04,VALID,920.656,VALID,0,VALID,97.6102,VALID,0.107441,VALID,19.8183,INVALID,360,VALID,0,
2010-02-22, 00:01:04,VALID,920.642,VALID,0,VALID,97.5797,VALID,0.107441,VALID,19.7793,INVALID,360,VALID,0,
2010-02-22, 00:02:04,VALID,920.611,VALID,0,VALID,97.6026,VALID,0.107441,VALID,19.7988,INVALID,360,VALID,0,
2010-02-22, 00:03:04,VALID,920.614,VALID,0,VALID,97.5797,VALID,0,VALID,19.7988,VALID,341,VALID,0.3,
2010-02-22, 00:04:04,VALID,920.614,VALID,0,VALID,97.6102,VALID,0.107441,VALID,19.7793,INVALID,360,VALID,0,
2010-02-22, 00:05:04,VALID,920.574,VALID,0,VALID,97.595,VALID,0.107441,VALID,19.7793,VALID,341,VALID,0,
2010-02-22, 00:06:04,VALID,920.572,VALID,0,VALID,97.5797,VALID,0.107441,VALID,19.8198,INVALID,360,VALID,0,
2010-02-22, 00:07:04,VALID,920.558,VALID,0,VALID,97.5569,VALID,0.107441,VALID,19.8183,INVALID,360,VALID,0,
2010-02-22, 00:08:04,VALID,920.545,VALID,0,VALID,97.5797,VALID,0.107441,VALID,19.7988,VALID,341,VALID,0.291406,
2010-02-22, 00:09:04,VALID,920.55,VALID,0,VALID,97.5797,VALID,0,VALID,19.7808,VALID,341,VALID,0.204688,
2010-02-22, 00:10:04,VALID,920.561,VALID,0,VALID,97.5873,VALID,0.107441,VALID,19.7598,VALID,341,VALID,0.0632813,
2010-02-22, 00:11:04,VALID,920.56,VALID,0,VALID,97.6026,VALID,0.107441,VALID,19.7223,VALID,341,VALID,0.268359,
2010-02-22, 00:12:04,VALID,920.57,VALID,0,VALID,97.595,VALID,0,VALID,19.6428,VALID,341,VALID,0.372656,
2010-02-22, 00:13:04,VALID,920.541,VALID,0,VALID,97.595,VALID,0.107441,VALID,19.6248,VALID,341,VALID,0.286328,
2010-02-22, 00:14:04,VALID,920.531,VALID,0,VALID,97.595,VALID,0.107441,VALID,19.6428,VALID,341,VALID,0.226953,
2010-02-22, 00:15:04,VALID,920.524,VALID,0,VALID,97.6178,VALID,0.107441,VALID,19.6443,VALID,341,VALID,0.163672,
2010-02-22, 00:16:04,VALID,920.546,VALID,0,VALID,97.595,VALID,0.107441,VALID,19.5843,VALID,341,VALID,0.286719,
2010-02-22, 00:17:04,VALID,920.525,VALID,0,VALID,97.6102,VALID,0.107441,VALID,19.5858,VALID,341,VALID,0.423047,
2010-02-22, 00:18:04,VALID,920.521,VALID,0,VALID,97.6026,VALID,0.107441,VALID,19.5663,VALID,341,VALID,0.357422,
2010-02-22, 00:19:04,VALID,920.534,VALID,0,VALID,97.6026,VALID,0.107441,VALID,19.5453,VALID,341,VALID,0.449219,
2010-02-22, 00:20:04,VALID,920.539,VALID,0,VALID,97.6102,VALID,0.107441,VALID,19.5453,VALID,341,VALID,0.623047,
2010-02-22, 00:21:04,VALID,920.502,VALID,0,VALID,97.6026,VALID,0.107441,VALID,19.5453,VALID,341,VALID,0.330469,
2010-02-22, 00:22:04,VALID,920.486,VALID,0,VALID,97.6178,VALID,0.107441,VALID,19.5648,VALID,341,VALID,0.632422,
2010-02-22, 00:23:04,VALID,920.44,VALID,0,VALID,97.6407,VALID,0.107441,VALID,19.5648,VALID,341,VALID,0.61875,
2010-02-22, 00:24:04,VALID,920.428,VALID,0,VALID,97.6026,VALID,0.107441,VALID,19.5453,VALID,341,VALID,0.472656,
2010-02-22, 00:25:04,VALID,920.436,VALID,0,VALID,97.6407,VALID,0.107441,VALID,19.5453,VALID,341,VALID,0.400781,
2010-02-22, 00:26:04,VALID,920.384,VALID,0,VALID,97.6331,VALID,0.107441,VALID,19.5468,VALID,341,VALID,0.338672,
2010-02-22, 00:27:04,VALID,920.355,VALID,0,VALID,97.6331,VALID,0.107441,VALID,19.5258,VALID,341,VALID,0.421875,
2010-02-22, 00:28:04,VALID,920.356,VALID,0,VALID,97.6255,VALID,0.107441,VALID,19.5258,VALID,341,VALID,0.862109,
2010-02-22, 00:29:04,VALID,920.366,VALID,0,VALID,97.6331,VALID,0,VALID,19.5468,VALID,341,VALID,0.763281,
2010-02-22, 00:30:04,VALID,920.338,VALID,0,VALID,97.6407,VALID,0.107441,VALID,19.5273,VALID,341,VALID,0.946484,
2010-02-22, 00:31:04,VALID,920.331,VALID,0,VALID,97.6636,VALID,0.107441,VALID,19.4868,VALID,116,VALID,0.937109,
2010-02-22, 00:32:04,VALID,920.296,VALID,0,VALID,97.6483,VALID,0.107441,VALID,19.5078,VALID,116,VALID,0.548828,
2010-02-22, 00:33:04,VALID,920.299,VALID,0,VALID,97.6407,VALID,0.107441,VALID,19.5078,VALID,116,VALID,1.01719,
2010-02-22, 00:34:04,VALID,920.282,VALID,0,VALID,97.656,VALID,0.107441,VALID,19.4868,VALID,116,VALID,0.966797,
2010-02-22, 00:35:04,VALID,920.26,VALID,0,VALID,97.6483,VALID,0.107441,VALID,19.4868,VALID,116,VALID,0.841016,
2010-02-22, 00:36:04,VALID,920.252,VALID,0,VALID,97.6483,VALID,0.107441,VALID,19.4883,VALID,116,VALID,0.844141,
2010-02-22, 00:37:04,VALID,920.221,VALID,0,VALID,97.6712,VALID,0.107441,VALID,19.4883,VALID,116,VALID,0.115234,
2010-02-22, 00:38:04,VALID,920.21,VALID,0,VALID,97.6636,VALID,0.107441,VALID,19.4673,VALID,116,VALID,0.237109,
2010-02-22, 00:39:04,VALID,920.162,VALID,0,VALID,97.6636,VALID,0.107441,VALID,19.4673,VALID,116,VALID,0.880078,
2010-02-22, 00:40:04,VALID,920.154,VALID,0,VALID,97.6636,VALID,0.107441,VALID,19.4883,VALID,116,VALID,0.773047,
2010-02-22, 00:41:04,VALID,920.145,VALID,0,VALID,97.6636,VALID,0.107441,VALID,19.4868,VALID,116,VALID,0.498828,
2010-02-22, 00:42:04,VALID,920.097,VALID,0,VALID,97.656,VALID,0.107441,VALID,19.4868,VALID,116,VALID,0.486719,
2010-02-22, 00:43:04,VALID,920.118,VALID,0,VALID,97.6636,VALID,0.107441,VALID,19.4673,VALID,116,VALID,0.602734,
2010-02-22, 00:44:04,VALID,920.101,VALID,0,VALID,97.6788,VALID,0.107441,VALID,19.4883,VALID,116,VALID,0.411719,
2010-02-22, 00:45:04,VALID,920.09,VALID,0,VALID,97.6788,VALID,0.107441,VALID,19.4673,VALID,116,VALID,0.712891,
2010-02-22, 00:46:04,VALID,920.112,VALID,0,VALID,97.6865,VALID,0.107441,VALID,19.4478,VALID,116,VALID,0.559766,
2010-02-22, 00:47:04,VALID,920.086,VALID,0,VALID,97.6865,VALID,0.107441,VALID,19.4478,VALID,116,VALID,0.567187,
2010-02-22, 00:48:04,VALID,920.114,VALID,0,VALID,97.6941,VALID,0.107441,VALID,19.4478,VALID,116,VALID,0.370313,
2010-02-22, 00:49:04,VALID,920.078,VALID,0,VALID,97.6941,VALID,0.107441,VALID,19.4283,VALID,116,VALID,0.0601562,
2010-02-22, 00:50:04,VALID,920.044,VALID,0,VALID,97.6865,VALID,0.107441,VALID,19.4478,VALID,116,VALID,0.448828,
2010-02-22, 00:51:04,VALID,919.982,VALID,0,VALID,97.6788,VALID,0,VALID,19.4688,VALID,116,VALID,0.430078,
2010-02-22, 00:52:04,VALID,919.956,VALID,0,VALID,97.6788,VALID,0,VALID,19.4283,VALID,116,VALID,0.460547,
2010-02-22, 00:53:04,VALID,919.928,VALID,0,VALID,97.6941,VALID,0.107441,VALID,19.4088,VALID,116,VALID,0.520703,
2010-02-22, 00:54:04,VALID,919.91,VALID,0,VALID,97.6636,VALID,0.107441,VALID,19.3893,VALID,116,VALID,0.878125,
2010-02-22, 00:55:04,VALID,919.893,VALID,0,VALID,97.6712,VALID,0.107441,VALID,19.3698,VALID,116,VALID,0.637891,
2010-02-22, 00:56:04,VALID,919.84,VALID,0,VALID,97.6941,VALID,0.107441,VALID,19.3503,VALID,116,VALID,0.607031,
2010-02-22, 00:57:04,VALID,919.82,VALID,0,VALID,97.7017,VALID,0.107441,VALID,19.3503,VALID,116,VALID,0.551953,
2010-02-22, 00:58:04,VALID,919.784,VALID,0,VALID,97.7169,VALID,0.107441,VALID,19.3518,VALID,116,VALID,0.576563,
2010-02-22, 00:59:04,VALID,919.781,VALID,0,VALID,97.7017,VALID,0.107441,VALID,19.3113,VALID,94,VALID,0.809766,
2010-02-22, 01:00:04,VALID,919.749,VALID,0,VALID,97.6941,VALID,0.107441,VALID,19.3113,VALID,94,VALID,0.505859,
2010-02-22, 01:01:04,VALID,919.75,VALID,0,VALID,97.6941,VALID,0,VALID,19.3323,VALID,94,VALID,0.394141,
2010-02-22, 01:02:04,VALID,919.691,VALID,0,VALID,97.6941,VALID,0.107441,VALID,19.2723,VALID,94,VALID,0.726563,
2010-02-22, 01:03:04,VALID,919.711,VALID,0,VALID,97.7017,VALID,0,VALID,19.2723,VALID,94,VALID,0.119531,
2010-02-22, 01:04:04,VALID,919.678,VALID,0,VALID,97.6941,VALID,0.107441,VALID,19.2723,VALID,94,VALID,0.690234,
2010-02-22, 01:05:04,VALID,919.65,VALID,0,VALID,97.7246,VALID,0,VALID,19.2723,VALID,94,VALID,0.501953,
2010-02-22, 01:06:04,VALID,919.648,VALID,0,VALID,97.7169,VALID,0.107441,VALID,19.2528,VALID,94,VALID,0.7625,
2010-02-22, 01:07:04,VALID,919.641,VALID,0,VALID,97.7322,VALID,0.107441,VALID,19.2933,VALID,94,VALID,0.855078,
2010-02-22, 01:08:04,VALID,919.639,VALID,0,VALID,97.7474,VALID,0,VALID,19.2723,VALID,95,VALID,0.516016,
2010-02-22, 01:09:04,VALID,919.637,VALID,0,VALID,97.7246,VALID,0.107441,VALID,19.2918,VALID,138,VALID,1.34336,
2010-02-22, 01:10:04,VALID,919.606,VALID,0,VALID,97.7169,VALID,0.107441,VALID,19.3128,VALID,138,VALID,1.03672,
2010-02-22, 01:11:04,VALID,919.601,VALID,0,VALID,97.7322,VALID,0.107441,VALID,19.3128,VALID,138,VALID,0.644922,
2010-02-22, 01:12:04,VALID,919.584,VALID,0,VALID,97.7398,VALID,0.107441,VALID,19.3113,VALID,138,VALID,0.753516,
2010-02-22, 01:13:04,VALID,919.536,VALID,0,VALID,97.7322,VALID,0,VALID,19.3323,VALID,138,VALID,0.910937,
2010-02-22, 01:14:04,VALID,919.567,VALID,0,VALID,97.7322,VALID,0,VALID,19.3323,VALID,138,VALID,0.632031,
2010-02-22, 01:15:04,VALID,919.519,VALID,0,VALID,97.7322,VALID,0.107441,VALID,19.2918,VALID,97,VALID,1.19023,
2010-02-22, 01:16:04,VALID,919.515,VALID,0,VALID,97.7398,VALID,0.107441,VALID,19.3113,VALID,87,VALID,0.876172,
2010-02-22, 01:17:04,VALID,919.49,VALID,0,VALID,97.7551,VALID,0.107441,VALID,19.3113,VALID,122,VALID,0.914844,
2010-02-22, 01:18:04,VALID,919.474,VALID,0,VALID,97.7627,VALID,0.107441,VALID,19.3323,VALID,128,VALID,0.918359,
2010-02-22, 01:19:04,VALID,919.459,VALID,0,VALID,97.7474,VALID,0.107441,VALID,19.2918,VALID,130,VALID,0.850781,
2010-02-22, 01:20:04,VALID,919.459,VALID,0,VALID,97.7246,VALID,0.107441,VALID,19.3128,VALID,130,VALID,1.19453,
2010-02-22, 01:21:04,VALID,919.435,VALID,0,VALID,97.7551,VALID,0,VALID,19.2918,VALID,130,VALID,0.926953,
2010-02-22, 01:22:04,VALID,919.463,VALID,0,VALID,97.7398,VALID,0.107441,VALID,19.2933,VALID,130,VALID,0.291016,
2010-02-22, 01:23:04,VALID,919.425,VALID,0,VALID,97.7398,VALID,0.107441,VALID,19.3128,VALID,130,VALID,0.264062,
2010-02-22, 01:24:04,VALID,919.413,VALID,0,VALID,97.7703,VALID,0.107441,VALID,19.2918,VALID,130,VALID,0.196094,
2010-02-22, 01:25:04,VALID,919.425,VALID,0,VALID,97.7779,VALID,0.107441,VALID,19.3323,VALID,130,VALID,0.359766,
2010-02-22, 01:26:04,VALID,919.396,VALID,0,VALID,97.7474,VALID,0,VALID,19.3128,VALID,130,VALID,0.739844,
2010-02-22, 01:27:04,VALID,919.368,VALID,0,VALID,97.7474,VALID,0.107441,VALID,19.3323,VALID,130,VALID,0.357031,
2010-02-22, 01:28:04,VALID,919.326,VALID,0,VALID,97.7551,VALID,0.107441,VALID,19.3113,VALID,153,VALID,0.764844,
2010-02-22, 01:29:04,VALID,919.316,VALID,0,VALID,97.7551,VALID,0.107441,VALID,19.2918,VALID,154,VALID,0.505078,
2010-02-22, 01:30:04,VALID,919.28,VALID,0,VALID,97.7551,VALID,0,VALID,19.2918,VALID,154,VALID,0.702734,
2010-02-22, 01:31:04,VALID,919.252,VALID,0,VALID,97.7627,VALID,0.107441,VALID,19.2723,VALID,154,VALID,0.689062,
2010-02-22, 01:32:04,VALID,919.265,VALID,0,VALID,97.7474,VALID,0,VALID,19.2543,VALID,154,VALID,0.521484,
2010-02-22, 01:33:04,VALID,919.253,VALID,0,VALID,97.7322,VALID,0,VALID,19.2738,VALID,154,VALID,0.909375,
2010-02-22, 01:34:04,VALID,919.241,VALID,0,VALID,97.7627,VALID,0,VALID,19.2348,VALID,154,VALID,0.782422,
2010-02-22, 01:35:04,VALID,919.226,VALID,0,VALID,97.7398,VALID,0,VALID,19.2558,VALID,154,VALID,0.553516,
2010-02-22, 01:36:04,VALID,919.198,VALID,0,VALID,97.7856,VALID,0,VALID,19.2543,VALID,141,VALID,1.02227,
2010-02-22, 01:37:04,VALID,919.211,VALID,0,VALID,97.7703,VALID,0,VALID,19.2753,VALID,169,VALID,1.17305,
2010-02-22, 01:38:04,VALID,919.195,VALID,0,VALID,97.7703,VALID,0,VALID,19.2543,VALID,169,VALID,0.686328,
2010-02-22, 01:39:04,VALID,919.15,VALID,0,VALID,97.7779,VALID,0,VALID,19.2348,VALID,144,VALID,1.07461,
2010-02-22, 01:40:04,VALID,919.146,VALID,0,VALID,97.7703,VALID,0,VALID,19.2348,VALID,114,VALID,1.02266,
2010-02-22, 01:41:04,VALID,919.133,VALID,0,VALID,97.7703,VALID,0,VALID,19.2348,VALID,137,VALID,0.774609,
2010-02-22, 01:42:04,VALID,919.113,VALID,0,VALID,97.7703,VALID,0,VALID,19.2543,VALID,185,VALID,1.03672,
2010-02-22, 01:43:04,VALID,919.096,VALID,0,VALID,97.7779,VALID,0,VALID,19.2738,VALID,200,VALID,0.616797,
2010-02-22, 01:44:04,VALID,919.041,VALID,0,VALID,97.7856,VALID,0,VALID,19.2753,VALID,130,VALID,1.17383,
2010-02-22, 01:45:04,VALID,919.044,VALID,0,VALID,97.7932,VALID,0,VALID,19.2348,VALID,127,VALID,1.1957,
2010-02-22, 01:46:04,VALID,918.979,VALID,0,VALID,97.7856,VALID,0,VALID,19.2348,VALID,138,VALID,1.0543,
2010-02-22, 01:47:04,VALID,918.989,VALID,0,VALID,97.7856,VALID,0,VALID,19.2348,VALID,147,VALID,0.651953,
2010-02-22, 01:48:04,VALID,918.954,VALID,0,VALID,97.8008,VALID,0,VALID,19.2753,VALID,147,VALID,0.223438,
2010-02-22, 01:49:04,VALID,918.943,VALID,0,VALID,97.7703,VALID,0,VALID,19.2753,VALID,177,VALID,1.2457,
2010-02-22, 01:50:04,VALID,918.947,VALID,0,VALID,97.7856,VALID,0,VALID,19.2753,VALID,173,VALID,1.46406,
2010-02-22, 01:51:04,VALID,918.915,VALID,0,VALID,97.7779,VALID,0,VALID,19.2948,VALID,142,VALID,0.328906,
2010-02-22, 01:52:04,VALID,918.906,VALID,0,VALID,97.7703,VALID,0,VALID,19.2753,VALID,126,VALID,1.39844,
2010-02-22, 01:53:04,VALID,918.89,VALID,0,VALID,97.7932,VALID,0,VALID,19.2558,VALID,153,VALID,1.63789,
2010-02-22, 01:54:04,VALID,918.87,VALID,0,VALID,97.8008,VALID,0,VALID,19.2348,VALID,103,VALID,1.05469,
2010-02-22, 01:55:04,VALID,918.85,VALID,0,VALID,97.7932,VALID,0,VALID,19.2753,VALID,133,VALID,1.73906,
2010-02-22, 01:56:04,VALID,918.827,VALID,0,VALID,97.7779,VALID,0,VALID,19.2753,VALID,173,VALID,0.878516,
2010-02-22, 01:57:04,VALID,918.824,VALID,0,VALID,97.7856,VALID,0,VALID,19.2738,VALID,137,VALID,1.53008,
2010-02-22, 01:58:04,VALID,918.774,VALID,0,VALID,97.816,VALID,0,VALID,19.2753,VALID,124,VALID,1.3375,
2010-02-22, 01:59:04,VALID,918.765,VALID,0,VALID,97.8008,VALID,0,VALID,19.2753,VALID,142,VALID,1.57305,
2010-02-22, 02:00:04,VALID,918.769,VALID,0,VALID,97.7932,VALID,0,VALID,19.2753,VALID,142,VALID,0.845703,
2010-02-22, 02:01:04,VALID,918.729,VALID,0,VALID,97.8084,VALID,0,VALID,19.3143,VALID,145,VALID,1.27656,
2010-02-22, 02:02:04,VALID,918.734,VALID,0,VALID,97.816,VALID,0.107441,VALID,19.2933,VALID,190,VALID,1.2332,
2010-02-22, 02:03:04,VALID,918.73,VALID,0,VALID,97.8084,VALID,0,VALID,19.2933,VALID,146,VALID,0.771875,
2010-02-22, 02:04:04,VALID,918.693,VALID,0,VALID,97.8084,VALID,0,VALID,19.2933,VALID,178,VALID,1.11406,
2010-02-22, 02:05:04,VALID,918.672,VALID,0,VALID,97.816,VALID,0,VALID,19.2933,VALID,140,VALID,0.868359,
2010-02-22, 02:06:04,VALID,918.631,VALID,0,VALID,97.8008,VALID,0,VALID,19.2738,VALID,134,VALID,1.79336,
2010-02-22, 02:07:04,VALID,918.625,VALID,0,VALID,97.8084,VALID,0.107441,VALID,19.2738,VALID,169,VALID,1.34883,
2010-02-22, 02:08:04,VALID,918.572,VALID,0,VALID,97.7932,VALID,0.107441,VALID,19.2933,VALID,167,VALID,1.92383,
2010-02-22, 02:09:04,VALID,918.59,VALID,0,VALID,97.8008,VALID,0,VALID,19.2738,VALID,188,VALID,0.808594,
2010-02-22, 02:10:04,VALID,918.566,VALID,0,VALID,97.7932,VALID,0.107441,VALID,19.2933,VALID,158,VALID,1.05742,
2010-02-22, 02:11:04,VALID,918.521,VALID,0,VALID,97.8084,VALID,0,VALID,19.2738,VALID,135,VALID,0.877344,
2010-02-22, 02:12:04,VALID,918.537,VALID,0,VALID,97.7932,VALID,0,VALID,19.2738,VALID,128,VALID,0.445313,
2010-02-22, 02:13:04,VALID,918.506,VALID,0,VALID,97.8084,VALID,0,VALID,19.2738,VALID,128,VALID,0.411328,
2010-02-22, 02:14:04,VALID,918.484,VALID,0,VALID,97.8237,VALID,0,VALID,19.2528,VALID,67,VALID,0.770312,
2010-02-22, 02:15:04,VALID,918.467,VALID,0,VALID,97.8084,VALID,0,VALID,19.2543,VALID,178,VALID,1.05352,
2010-02-22, 02:16:04,VALID,918.43,VALID,0,VALID,97.816,VALID,0.107441,VALID,19.2348,VALID,137,VALID,1.30664,
2010-02-22, 02:17:04,VALID,918.437,VALID,0,VALID,97.816,VALID,0,VALID,19.2139,VALID,153,VALID,0.741016,
2010-02-22, 02:18:04,VALID,918.399,VALID,0,VALID,97.8084,VALID,0,VALID,19.2153,VALID,155,VALID,1.38437,
2010-02-22, 02:19:04,VALID,918.38,VALID,0,VALID,97.8237,VALID,0,VALID,19.2153,VALID,146,VALID,1.2418,
2010-02-22, 02:20:04,VALID,918.401,VALID,0,VALID,97.8084,VALID,0.107441,VALID,19.1958,VALID,144,VALID,0.748047,
2010-02-22, 02:21:04,VALID,918.382,VALID,0,VALID,97.7856,VALID,0.107441,VALID,19.1958,VALID,169,VALID,0.822656,
2010-02-22, 02:22:04,VALID,918.381,VALID,0,VALID,97.816,VALID,0,VALID,19.1749,VALID,137,VALID,0.782812,
2010-02-22, 02:23:04,VALID,918.395,VALID,0,VALID,97.816,VALID,0.107441,VALID,19.1568,VALID,129,VALID,1.33945,
2010-02-22, 02:24:04,VALID,918.372,VALID,0,VALID,97.8237,VALID,0.107441,VALID,19.1568,VALID,145,VALID,1.40859,
2010-02-22, 02:25:04,VALID,918.331,VALID,0,VALID,97.8084,VALID,0,VALID,19.1373,VALID,139,VALID,1.57617,
2010-02-22, 02:26:04,VALID,918.346,VALID,0,VALID,97.8237,VALID,0.107441,VALID,19.1373,VALID,123,VALID,1.54414,
2010-02-22, 02:27:04,VALID,918.325,VALID,0,VALID,97.8084,VALID,0,VALID,19.1178,VALID,134,VALID,1.61172,
2010-02-22, 02:28:04,VALID,918.348,VALID,0,VALID,97.8237,VALID,0,VALID,19.0983,VALID,121,VALID,0.584766,
2010-02-22, 02:29:04,VALID,918.338,VALID,0,VALID,97.8313,VALID,0,VALID,19.0983,VALID,121,VALID,0.894922,
2010-02-22, 02:30:04,VALID,918.322,VALID,0,VALID,97.8313,VALID,0,VALID,19.0788,VALID,121,VALID,0.444531,
2010-02-22, 02:31:04,VALID,918.343,VALID,0,VALID,97.8237,VALID,0.107441,VALID,19.0983,VALID,179,VALID,1.0457,
2010-02-22, 02:32:04,VALID,918.354,VALID,0,VALID,97.8237,VALID,0.107441,VALID,19.0983,VALID,179,VALID,0.581641,
2010-02-22, 02:33:04,VALID,918.357,VALID,0,VALID,97.8389,VALID,0,VALID,19.0788,VALID,144,VALID,1.43711,
2010-02-22, 02:34:04,VALID,918.326,VALID,0,VALID,97.8389,VALID,0,VALID,19.0593,VALID,166,VALID,1.2918,
2010-02-22, 02:35:04,VALID,918.346,VALID,0,VALID,97.8465,VALID,0,VALID,19.0788,VALID,174,VALID,0.894922,
2010-02-22, 02:36:04,VALID,918.297,VALID,0,VALID,97.8389,VALID,0.107441,VALID,19.0398,VALID,163,VALID,1.27305,
2010-02-22, 02:37:04,VALID,918.345,VALID,0,VALID,97.8465,VALID,0,VALID,19.0398,VALID,170,VALID,0.909375,
2010-02-22, 02:38:04,VALID,918.29,VALID,0,VALID,97.8618,VALID,0,VALID,19.0398,VALID,140,VALID,1.27031,
2010-02-22, 02:39:04,VALID,918.271,VALID,0,VALID,97.8389,VALID,0,VALID,19.0203,VALID,146,VALID,1.25703,
2010-02-22, 02:40:04,VALID,918.251,VALID,0,VALID,97.8542,VALID,0,VALID,18.9799,VALID,123,VALID,1.25156,
2010-02-22, 02:41:04,VALID,918.264,VALID,0,VALID,97.8542,VALID,0.107441,VALID,18.9424,VALID,135,VALID,1.08398,
2010-02-22, 02:42:04,VALID,918.251,VALID,0,VALID,97.8465,VALID,0.107441,VALID,18.9229,VALID,158,VALID,1.41328,
2010-02-22, 02:43:04,VALID,918.27,VALID,0,VALID,97.8542,VALID,0,VALID,18.9229,VALID,125,VALID,0.807422,
2010-02-22, 02:44:04,VALID,918.271,VALID,0,VALID,97.8542,VALID,0,VALID,18.8839,VALID,145,VALID,1.0043,
2010-02-22, 02:45:04,VALID,918.277,VALID,0,VALID,97.8389,VALID,0,VALID,18.8839,VALID,145,VALID,0.396875,
2010-02-22, 02:46:04,VALID,918.251,VALID,0,VALID,97.8542,VALID,0,VALID,18.8449,VALID,145,VALID,0.825,
2010-02-22, 02:47:04,VALID,918.249,VALID,0,VALID,97.8542,VALID,0.107441,VALID,18.8254,VALID,145,VALID,0.953906,
2010-02-22, 02:48:04,VALID,918.233,VALID,0,VALID,97.877,VALID,0,VALID,18.8059,VALID,145,VALID,0.664844,
2010-02-22, 02:49:04,VALID,918.232,VALID,0,VALID,97.8694,VALID,0.107441,VALID,18.8059,VALID,115,VALID,1.05234,
2010-02-22, 02:50:04,VALID,918.238,VALID,0,VALID,97.8618,VALID,0.107441,VALID,18.7669,VALID,115,VALID,1.04766,
2010-02-22, 02:51:04,VALID,918.228,VALID,0,VALID,97.8465,VALID,0.107441,VALID,18.7669,VALID,115,VALID,1.05352,
2010-02-22, 02:52:04,VALID,918.203,VALID,0,VALID,97.8465,VALID,0,VALID,18.7474,VALID,115,VALID,0.890625,
2010-02-22, 02:53:04,VALID,918.219,VALID,0,VALID,97.8465,VALID,0,VALID,18.7474,VALID,115,VALID,1.24961,
2010-02-22, 02:54:04,VALID,918.195,VALID,0,VALID,97.8847,VALID,0,VALID,18.7669,VALID,138,VALID,0.880469,
2010-02-22, 02:55:04,VALID,918.152,VALID,0,VALID,97.8847,VALID,0,VALID,18.7669,VALID,111,VALID,1.23906,
2010-02-22, 02:56:04,VALID,918.136,VALID,0,VALID,97.8847,VALID,0,VALID,18.7683,VALID,118,VALID,1.14531,
2010-02-22, 02:57:04,VALID,918.111,VALID,0,VALID,97.877,VALID,0.107441,VALID,18.7474,VALID,131,VALID,1.42891,
2010-02-22, 02:58:04,VALID,918.075,VALID,0,VALID,97.8694,VALID,0,VALID,18.7474,VALID,125,VALID,1.23047,
2010-02-22, 02:59:04,VALID,918.08,VALID,0,VALID,97.877,VALID,0,VALID,18.7669,VALID,115,VALID,1.47578,
2010-02-22, 03:00:04,VALID,918.064,VALID,0,VALID,97.8847,VALID,0,VALID,18.7669,VALID,110,VALID,1.45039,
2010-02-22, 03:01:04,VALID,918.057,VALID,0,VALID,97.9075,VALID,0.107441,VALID,18.7864,VALID,128,VALID,1.55391,
2010-02-22, 03:02:04,VALID,918.023,VALID,0,VALID,97.8923,VALID,0,VALID,18.7669,VALID,151,VALID,1.45039,
2010-02-22, 03:03:04,VALID,918.066,VALID,0,VALID,97.877,VALID,0,VALID,18.7864,VALID,142,VALID,1.50195,
2010-02-22, 03:04:04,VALID,917.99,VALID,0,VALID,97.9075,VALID,0.107441,VALID,18.8059,VALID,117,VALID,1.41094,
2010-02-22, 03:05:04,VALID,917.974,VALID,0,VALID,97.877,VALID,0.107441,VALID,18.8059,VALID,135,VALID,1.43438,
2010-02-22, 03:06:04,VALID,917.968,VALID,0,VALID,97.8923,VALID,0,VALID,18.7864,VALID,147,VALID,1.39648,
2010-02-22, 03:07:04,VALID,917.973,VALID,0,VALID,97.8999,VALID,0.107441,VALID,18.785,VALID,141,VALID,1.22227,
2010-02-22, 03:08:04,VALID,917.916,VALID,0,VALID,97.8694,VALID,0.107441,VALID,18.8059,VALID,124,VALID,1.3668,
2010-02-22, 03:09:04,VALID,917.902,VALID,0,VALID,97.877,VALID,0.107441,VALID,18.8059,VALID,113,VALID,1.07461,
2010-02-22, 03:10:04,VALID,917.922,VALID,0,VALID,97.8847,VALID,0,VALID,18.8059,VALID,133,VALID,1.40664,
2010-02-22, 03:11:04,VALID,917.887,VALID,0,VALID,97.8923,VALID,0,VALID,18.8059,VALID,121,VALID,1.67617,
2010-02-22, 03:12:04,VALID,917.917,VALID,0,VALID,97.9075,VALID,0,VALID,18.8059,VALID,123,VALID,0.883203,
2010-02-22, 03:13:04,VALID,917.911,VALID,0,VALID,97.8999,VALID,0.107441,VALID,18.7864,VALID,123,VALID,1.3043,
2010-02-22, 03:14:04,VALID,917.902,VALID,0,VALID,97.9152,VALID,0,VALID,18.7864,VALID,83,VALID,0.926953,
2010-02-22, 03:15:04,VALID,917.889,VALID,0,VALID,97.8999,VALID,0.107441,VALID,18.785,VALID,104,VALID,1.62109,
2010-02-22, 03:16:04,VALID,917.85,VALID,0,VALID,97.8999,VALID,0,VALID,18.8059,VALID,119,VALID,0.949609,
2010-02-22, 03:17:04,VALID,917.849,VALID,0,VALID,97.8999,VALID,0.107441,VALID,18.8059,VALID,111,VALID,2.00938,
2010-02-22, 03:18:04,VALID,917.82,VALID,0,VALID,97.877,VALID,0.107441,VALID,18.8059,VALID,138,VALID,1.00156,
2010-02-22, 03:19:04,VALID,917.795,VALID,0,VALID,97.8923,VALID,0.107441,VALID,18.7864,VALID,109,VALID,1.075,
2010-02-22, 03:20:04,VALID,917.761,VALID,0,VALID,97.8999,VALID,0,VALID,18.7864,VALID,123,VALID,1.25625,
2010-02-22, 03:21:04,VALID,917.76,VALID,0,VALID,97.9075,VALID,0.107441,VALID,18.7669,VALID,126,VALID,1.0625,
2010-02-22, 03:22:04,VALID,917.749,VALID,0,VALID,97.8923,VALID,0,VALID,18.7669,VALID,124,VALID,1.03828,
2010-02-22, 03:23:04,VALID,917.706,VALID,0,VALID,97.9075,VALID,0,VALID,18.7669,VALID,131,VALID,0.95625,
2010-02-22, 03:24:04,VALID,917.728,VALID,0,VALID,97.9152,VALID,0.107441,VALID,18.7669,VALID,104,VALID,1.3875,
2010-02-22, 03:25:04,VALID,917.687,VALID,0,VALID,97.9228,VALID,0,VALID,18.7669,VALID,155,VALID,1.65977,
2010-02-22, 03:26:04,VALID,917.676,VALID,0,VALID,97.8923,VALID,0,VALID,18.746,VALID,153,VALID,1.80156,
2010-02-22, 03:27:04,VALID,917.66,VALID,0,VALID,97.9075,VALID,0.107441,VALID,18.7669,VALID,150,VALID,1.87109,
2010-02-22, 03:28:04,VALID,917.667,VALID,0,VALID,97.9152,VALID,0,VALID,18.7864,VALID,133,VALID,1.00352,
2010-02-22, 03:29:04,VALID,917.617,VALID,0,VALID,97.8999,VALID,0,VALID,18.8059,VALID,132,VALID,1.49609,
2010-02-22, 03:30:04,VALID,917.649,VALID,0,VALID,97.9228,VALID,0,VALID,18.7864,VALID,179,VALID,0.969141,
2010-02-22, 03:31:04,VALID,917.621,VALID,0,VALID,97.9228,VALID,0,VALID,18.8254,VALID,159,VALID,1.55313,
2010-02-22, 03:32:04,VALID,917.583,VALID,0,VALID,97.8923,VALID,0.107441,VALID,18.8059,VALID,176,VALID,1.94648,
2010-02-22, 03:33:04,VALID,917.593,VALID,0,VALID,97.9075,VALID,0.107441,VALID,18.8045,VALID,169,VALID,1.80078,
2010-02-22, 03:34:04,VALID,917.582,VALID,0,VALID,97.9075,VALID,0,VALID,18.8254,VALID,174,VALID,2.50977,
2010-02-22, 03:35:04,VALID,917.58,VALID,0,VALID,97.8999,VALID,0.107441,VALID,18.8449,VALID,176,VALID,0.63125,
2010-02-22, 03:36:04,VALID,917.607,VALID,0,VALID,97.9228,VALID,0.107441,VALID,18.8449,VALID,169,VALID,1.72461,
2010-02-22, 03:37:04,VALID,917.585,VALID,0,VALID,97.8923,VALID,0.107441,VALID,18.8254,VALID,154,VALID,1.39531,
2010-02-22, 03:38:04,VALID,917.62,VALID,0,VALID,97.8999,VALID,0.107441,VALID,18.8254,VALID,146,VALID,1.1957,